SCP
0 0 0 0 0 0 0 0 0 0 0 0 0 0 0 0 0 0 0 2 2 2 2 1 1 1 1 1 1 0 0 0 0 0 0 0 0 0 0 0 0 0 0
0 1 1 0 -0 1 0 0 0 0 0 0 0 0 0 0 0 0 0 1 1 1 2 2 1 1 1 1 1 0 0 0 0 0 0 0 0 0 0 0 0 0 0
2 1 1 1 1 0 0 0 0 0 0 0 0 0 0 0 0 0 1 0 1 1 1 1 1 1 1 1 1 1 0 0 0 0 0 0 0 0 0 0 0 0 0
2 3 2 1 1 1 1 0 0 0 0 0 0 0 0 0 1 1 1 1 1 1 0 1 1 1 1 1 1 1 0 0 0 0 0 0 0 0 0 0 0 0 0
3 3 2 1 2 1 1 1 1 0 0 0 0 1 1 1 2 1 1 2 2 1 0 0 1 1 1 1 1 1 1 0 0 0 0 0 0 0 0 0 0 0 0
3 3 2 2 2 2 1 1 1 0 0 1 0 1 2 2 3 3 2 3 3 2 1 0 1 1 1 1 1 1 1 1 1 0 0 0 0 0 0 0 0 0 0
3 3 2 1 2 1 1 1 1 1 0 1 1 2 2 3 3 2 3 3 3 2 1 1 2 1 1 1 1 1 1 1 1 0 0 0 0 0 0 0 0 0 0
2 3 3 2 1 2 1 1 0 1 1 0 2 2 2 2 2 4 4 3 3 3 1 2 2 2 2 1 1 1 1 1 0 0 0 0 0 0 0 0 0 0 0
2 3 3 2 3 2 1 0 2 3 1 1 2 2 1 2 3 4 3 4 2 3 2 2 3 2 2 1 1 1 1 1 0 0 0 0 0 0 0 0 0 0 0
1 1 2 2 3 1 1 2 2 4 2 1 2 1 2 4 3 3 4 3 3 3 3 2 2 3 1 1 1 1 1 1 1 0 0 0 0 0 0 0 0 0 0
1 1 2 3 2 1 1 2 4 4 3 3 5 0 1 2 2 3 3 3 4 3 2 2 2 2 1 1 1 1 1 1 0 0 0 0 0 0 0 0 0 0 0
2 1 1 1 2 1 1 3 3 2 7 4 2 1 1 3 4 5 4 2 2 3 3 4 3 1 1 1 1 1 0 0 0 0 0 0 0 0 0 0 0 0 0
1 -0 1 1 1 2 3 3 3 5 5 7 3 3 3 1 4 4 4 3 2 3 4 3 2 1 1 1 1 1 0 0 0 0 0 0 0 0 0 0 0 0 0
1 3 2 3 1 2 3 4 4 5 10 4 3 1 5 2 3 4 4 4 3 4 3 2 2 2 1 1 1 1 0 0 0 0 0 0 0 0 0 0 0 0 0
1 1 1 3 4 4 6 6 5 2 5 3 2 5 6 4 3 5 5 4 3 3 2 1 1 1 2 1 1 1 1 0 0 0 0 0 0 0 -0 0 0 0 0
1 1 3 5 6 6 5 6 5 5 4 4 5 5 4 4 3 5 5 4 3 2 2 1 2 1 2 1 0 1 0 0 0 0 0 0 0 0 0 0 0 0 0
1 1 2 3 3 6 5 5 4 4 3 5 5 5 4 4 3 4 4 3 2 2 1 1 2 2 1 1 1 0 0 0 0 0 0 0 0 0 0 0 0 0 0
0 1 1 2 3 3 4 3 3 3 4 4 4 3 4 3 2 3 3 2 1 2 1 1 2 1 1 0 0 0 0 0 0 0 0 0 0 0 0 0 0 0 0
0 0 1 2 2 2 2 3 3 4 4 3 2 3 4 3 3 2 2 2 2 1 1 1 2 1 1 0 0 0 0 0 0 0 0 0 0 0 0 0 0 0 0
0 0 1 1 1 2 1 2 3 3 2 2 3 3 3 3 3 3 3 2 1 1 1 2 1 1 0 0 0 0 0 0 0 0 0 0 0 0 0 0 0 0 0
0 0 0 1 1 2 2 2 3 3 2 3 3 3 4 3 2 3 2 1 1 2 1 2 1 1 0 0 0 0 0 0 0 0 0 0 0 0 0 0 0 -0 -0
0 1 0 1 1 2 1 2 3 2 1 4 4 4 3 1 0 1 0 0 1 1 1 1 1 0 0 0 0 0 0 0 0 0 0 0 0 0 0 0 0 -0 -0
0 0 1 1 1 2 1 1 3 3 3 3 3 3 3 2 1 0 0 0 0 0 1 1 0 0 0 0 0 0 0 0 0 0 0 0 0 0 0 0 0 0 0
1 1 1 1 1 2 0 0 2 4 2 2 3 3 2 2 1 1 0 0 0 0 0 0 1 0 0 0 0 0 0 0 0 0 0 0 0 0 0 0 0 0 0
1 0 0 1 1 1 0 0 3 3 3 3 2 2 1 2 0 0 1 1 0 0 0 0 0 0 0 0 0 0 0 0 0 0 0 0 0 0 0 0 0 0 0
0 0 1 1 2 2 0 0 4 3 3 2 1 0 0 1 0 0 1 1 0 0 0 0 0 0 0 0 0 0 0 0 0 0 0 0 0 0 0 0 0 0 0
Wind_Speed_500mb
42 41 34 25 29 29 24 21 26 26 35 34 32 28 34 36 36 39 39 46 47 47 47 44 43 41 34 30 31 33 31 30 27 24 26 29 33 32 30 29 29 29 27
46 46 41 38 36 32 24 29 34 29 34 37 38 38 38 34 36 38 36 41 43 45 44 42 39 43 41 35 32 32 33 34 31 26 26 28 31 33 31 33 30 31 30
54 47 47 37 37 35 38 41 42 40 42 43 38 30 38 46 45 37 36 38 45 43 42 39 34 34 43 40 35 33 34 32 33 32 27 29 30 31 33 33 33 32 32
52 57 49 40 36 34 34 32 37 42 42 39 34 25 32 43 45 44 43 40 36 34 38 39 36 32 33 37 36 35 38 37 35 33 33 30 32 32 33 35 35 34 33
61 56 52 46 43 39 38 41 39 38 39 33 33 30 35 43 43 45 42 40 41 42 32 42 31 34 29 33 37 35 40 39 39 35 35 33 32 34 33 35 36 36 36
66 48 60 52 44 47 45 48 44 48 44 40 38 33 34 44 53 49 51 39 40 40 41 26 41 27 31 32 33 34 37 38 40 38 36 35 33 34 34 34 37 37 37
67 61 64 55 51 55 38 43 39 46 45 46 37 53 46 44 46 44 48 42 40 38 36 26 29 33 39 34 37 34 35 37 38 40 38 37 36 34 37 36 36 38 38
67 74 63 62 63 70 56 66 51 55 51 35 56 51 34 49 40 44 43 44 37 34 28 36 39 36 40 41 35 32 34 36 37 40 41 39 38 38 37 40 37 37 37
59 68 56 77 70 72 61 62 64 67 53 55 55 46 34 20 24 21 28 36 30 29 28 30 38 40 42 40 32 37 37 40 44 43 46 40 40 40 38 40 40 38 36
72 56 73 80 81 72 72 61 75 97 77 61 48 59 85 62 39 17 20 29 29 28 36 37 36 40 38 32 33 42 40 47 45 44 45 45 40 40 39 38 43 42 38
72 85 80 102 91 82 75 78 97 92 76 56 60 54 88 66 40 35 39 26 32 25 22 31 34 36 32 26 33 37 43 44 40 34 42 43 40 39 39 40 42 43 41
82 108 93 83 88 72 84 102 96 81 62 65 66 81 61 62 46 36 42 36 38 38 30 32 35 40 41 31 31 39 33 42 47 47 42 45 43 41 39 39 40 43 42
53 107 79 80 81 83 99 100 82 77 63 77 83 80 65 66 52 45 38 41 37 32 36 37 35 40 36 34 31 42 34 49 45 43 43 43 40 38 34 35 39 41 41
59 45 53 86 77 63 69 61 78 82 75 88 89 87 72 71 53 52 46 38 33 34 32 36 25 36 36 40 34 36 41 48 49 37 34 31 32 31 32 34 35 37 38
52 63 65 41 46 61 64 58 54 67 65 78 91 90 73 68 55 52 43 45 40 36 36 31 27 32 31 29 35 37 39 42 29 31 27 29 31 27 30 33 32 33 34
62 55 51 50 55 55 59 61 61 64 66 73 83 84 67 67 57 52 56 49 43 43 38 29 26 42 41 40 42 34 41 35 31 27 24 26 29 30 29 32 30 32 36
55 58 60 64 57 61 64 62 63 68 69 75 76 74 60 47 45 45 43 41 33 27 34 19 31 37 37 34 34 31 30 26 27 24 23 25 27 32 30 30 30 29 29
58 60 60 59 59 65 74 74 71 71 75 76 71 66 52 43 42 47 40 36 34 36 31 28 27 27 25 30 22 19 21 20 25 22 27 24 24 25 27 28 27 24 24
58 61 61 59 59 60 63 64 63 71 76 71 57 50 48 46 46 43 45 39 36 40 27 33 35 29 28 26 19 17 17 22 26 21 25 25 24 24 25 25 24 24 26
57 61 64 60 58 59 51 64 65 66 61 63 52 48 50 50 47 43 45 45 33 35 29 32 31 29 29 22 18 18 17 20 17 19 24 27 24 23 23 24 24 25 25
58 60 60 60 59 61 62 62 61 57 55 57 55 48 49 44 43 47 41 41 37 42 33 37 37 30 29 23 22 18 16 19 19 14 19 23 24 24 23 25 27 28 27
64 59 67 61 59 61 60 66 65 59 57 57 53 52 46 39 42 44 42 39 38 38 38 33 34 34 30 26 21 20 20 26 19 19 20 20 21 25 25 25 25 26 25
64 63 63 65 63 62 63 63 67 63 60 57 53 49 41 41 45 45 40 40 36 34 32 31 36 35 36 33 25 31 29 28 22 17 21 21 22 22 25 25 26 21 17
66 65 64 68 64 63 64 62 73 64 57 51 48 42 36 32 29 27 28 35 42 40 37 33 33 29 33 30 23 23 30 30 20 16 16 16 22 22 24 27 29 22 23
70 63 65 64 64 63 63 65 73 63 53 46 37 30 32 35 31 30 33 30 26 34 34 35 33 29 27 23 21 28 33 35 26 21 21 16 20 23 27 31 32 30 32
62 63 65 63 61 63 70 73 70 63 52 40 37 36 34 37 34 29 32 33 27 36 34 32 28 25 21 24 28 31 26 32 27 16 20 30 18 27 22 31 33 32 33
Wind_Direction_500mb
216 217 226 229 260 279 298 291 300 274 282 295 296 281 268 265 261 260 254 266 275 284 289 290 272 261 261 265 267 262 265 275 288 287 265 247 243 244 239 234 229 230 233
223 226 231 228 211 237 263 283 283 278 264 270 275 281 286 279 274 274 268 271 278 283 286 288 288 263 261 263 264 263 267 267 276 285 270 254 245 242 241 237 236 233 232
224 227 238 235 239 233 229 231 236 247 258 262 268 273 278 287 294 290 281 277 269 276 286 288 290 279 260 261 264 264 265 265 267 272 273 261 251 244 240 239 239 236 236
233 227 235 245 247 239 243 256 253 253 260 267 270 279 283 280 293 293 299 302 297 276 274 284 282 283 263 258 264 270 268 265 267 267 269 265 257 248 241 238 236 235 238
241 235 240 239 240 245 245 253 263 267 267 266 261 277 276 279 289 278 281 286 289 290 282 262 284 270 264 257 271 274 274 269 266 264 265 263 258 251 244 239 237 235 236
249 247 247 245 238 253 247 246 255 258 268 267 267 275 274 276 284 287 279 277 277 286 285 285 251 261 265 275 270 278 278 273 267 261 259 262 257 252 246 239 236 236 234
249 249 244 240 244 249 271 265 268 261 259 270 278 283 271 283 290 285 273 262 273 270 279 274 256 271 278 267 270 276 277 281 269 261 257 258 255 253 247 240 236 234 233
244 249 254 254 247 242 259 269 266 261 266 266 276 281 281 297 289 282 266 264 263 260 259 270 260 264 272 280 269 274 273 272 270 263 256 255 256 254 251 239 235 233 232
252 249 251 259 251 252 245 247 264 273 271 261 276 258 282 267 287 311 261 253 254 246 249 255 260 259 262 277 270 273 275 279 277 262 259 258 256 253 251 241 232 232 231
251 257 273 264 258 250 251 251 264 266 261 263 254 283 268 268 271 299 266 259 258 238 241 249 245 268 268 266 278 285 286 282 290 268 260 258 255 252 251 246 231 229 232
245 241 261 251 253 262 259 261 254 257 259 261 263 280 268 267 264 257 274 283 251 256 249 247 248 261 258 269 272 281 271 274 281 273 263 261 254 251 250 245 235 231 233
256 251 262 259 251 243 255 257 263 257 260 270 281 279 257 259 246 255 254 270 268 267 239 245 249 258 248 257 267 280 271 283 288 277 269 261 255 254 249 245 230 228 232
280 223 244 249 238 233 251 254 252 258 274 269 261 262 279 258 251 250 250 255 261 259 229 245 263 266 257 256 260 274 269 279 287 282 266 262 249 246 238 233 227 228 232
255 241 261 262 241 245 253 260 252 253 258 258 262 251 263 242 244 244 245 253 258 253 264 265 270 251 247 245 257 264 273 280 282 277 261 250 236 232 233 225 226 229 233
261 251 246 279 262 253 252 255 252 248 253 256 257 252 256 251 234 241 238 239 249 260 261 268 261 233 232 240 250 262 272 284 281 273 253 234 225 225 222 228 231 234 237
251 256 249 250 258 253 247 246 254 261 256 247 245 252 255 245 233 237 242 246 242 243 259 273 254 229 226 237 257 269 274 278 268 263 241 224 225 226 225 227 229 231 233
258 255 256 255 246 251 254 250 255 256 243 239 244 247 246 244 226 239 244 242 233 232 253 253 232 239 243 246 266 275 284 264 256 245 228 229 231 231 230 229 232 238 240
254 256 259 259 248 248 251 253 250 238 236 241 239 238 236 239 233 236 240 236 223 235 246 233 232 244 247 270 271 271 270 256 248 240 231 229 225 220 220 225 232 236 228
259 250 251 255 260 253 250 248 238 237 237 242 234 225 227 231 239 236 232 225 228 233 231 245 245 243 251 270 262 267 261 247 245 243 228 221 220 218 221 223 223 218 213
265 259 248 248 249 256 253 235 241 238 237 227 229 226 224 232 236 231 233 225 218 227 232 230 241 246 250 259 236 259 266 226 224 225 216 214 216 215 219 220 211 210 218
258 263 254 244 247 240 242 234 231 234 218 219 223 222 225 229 228 239 234 225 226 231 224 236 248 236 243 254 249 235 253 217 216 210 208 210 219 219 220 218 209 206 207
255 256 252 247 246 244 232 230 229 224 213 215 212 219 223 229 225 229 235 231 232 231 235 245 238 230 230 245 241 222 215 206 200 212 206 205 218 216 219 218 208 203 211
256 252 252 246 245 238 230 225 223 218 214 212 217 220 218 220 231 235 231 233 233 239 243 247 242 238 231 244 239 220 208 211 214 228 222 213 202 219 211 208 199 199 201
257 256 253 245 242 232 232 220 219 211 209 208 213 221 222 216 225 231 239 239 238 240 242 241 241 244 241 237 248 232 207 214 214 214 203 222 214 212 208 206 201 200 211
254 253 251 245 239 232 227 215 213 203 199 204 209 207 206 215 216 213 226 239 234 241 242 242 240 243 247 228 242 205 205 197 188 194 201 223 226 214 218 215 211 212 218
255 255 251 245 236 228 218 212 207 204 198 187 190 197 209 211 223 235 236 233 231 240 241 247 231 231 234 237 222 205 207 201 196 208 217 212 228 213 214 232 229 227 230
Wind_Speed_850mb
42 41 34 25 29 29 24 21 26 26 35 34 32 28 34 36 36 39 39 46 47 47 47 44 43 41 34 30 31 33 31 30 27 24 26 29 33 32 30 29 29 29 27
46 46 41 38 36 32 24 29 34 29 34 37 38 38 38 34 36 38 36 41 43 45 44 42 39 43 41 35 32 32 33 34 31 26 26 28 31 33 31 33 30 31 30
54 47 47 37 37 35 38 41 42 40 42 43 38 30 38 46 45 37 36 38 45 43 42 39 34 34 43 40 35 33 34 32 33 32 27 29 30 31 33 33 33 32 32
52 57 49 40 36 34 34 32 37 42 42 39 34 25 32 43 45 44 43 40 36 34 38 39 36 32 33 37 36 35 38 37 35 33 33 30 32 32 33 35 35 34 33
61 56 52 46 43 39 38 41 39 38 39 33 33 30 35 43 43 45 42 40 41 42 32 42 31 34 29 33 37 35 40 39 39 35 35 33 32 34 33 35 36 36 36
66 48 60 52 44 47 45 48 44 48 44 40 38 33 34 44 53 49 51 39 40 40 41 26 41 27 31 32 33 34 37 38 40 38 36 35 33 34 34 34 37 37 37
67 61 64 55 51 55 38 43 39 46 45 46 37 53 46 44 46 44 48 42 40 38 36 26 29 33 39 34 37 34 35 37 38 40 38 37 36 34 37 36 36 38 38
67 74 63 62 63 70 56 66 51 55 51 35 56 51 34 49 40 44 43 44 37 34 28 36 39 36 40 41 35 32 34 36 37 40 41 39 38 38 37 40 37 37 37
59 68 56 77 70 72 61 62 64 67 53 55 55 46 34 20 24 21 28 36 30 29 28 30 38 40 42 40 32 37 37 40 44 43 46 40 40 40 38 40 40 38 36
72 56 73 80 81 72 72 61 75 97 77 61 48 59 85 62 39 17 20 29 29 28 36 37 36 40 38 32 33 42 40 47 45 44 45 45 40 40 39 38 43 42 38
72 85 80 102 91 82 75 78 97 92 76 56 60 54 88 66 40 35 39 26 32 25 22 31 34 36 32 26 33 37 43 44 40 34 42 43 40 39 39 40 42 43 41
82 108 93 83 88 72 84 102 96 81 62 65 66 81 61 62 46 36 42 36 38 38 30 32 35 40 41 31 31 39 33 42 47 47 42 45 43 41 39 39 40 43 42
53 107 79 80 81 83 99 100 82 77 63 77 83 80 65 66 52 45 38 41 37 32 36 37 35 40 36 34 31 42 34 49 45 43 43 43 40 38 34 35 39 41 41
59 45 53 86 77 63 69 61 78 82 75 88 89 87 72 71 53 52 46 38 33 34 32 36 25 36 36 40 34 36 41 48 49 37 34 31 32 31 32 34 35 37 38
52 63 65 41 46 61 64 58 54 67 65 78 91 90 73 68 55 52 43 45 40 36 36 31 27 32 31 29 35 37 39 42 29 31 27 29 31 27 30 33 32 33 34
62 55 51 50 55 55 59 61 61 64 66 73 83 84 67 67 57 52 56 49 43 43 38 29 26 42 41 40 42 34 41 35 31 27 24 26 29 30 29 32 30 32 36
55 58 60 64 57 61 64 62 63 68 69 75 76 74 60 47 45 45 43 41 33 27 34 19 31 37 37 34 34 31 30 26 27 24 23 25 27 32 30 30 30 29 29
58 60 60 59 59 65 74 74 71 71 75 76 71 66 52 43 42 47 40 36 34 36 31 28 27 27 25 30 22 19 21 20 25 22 27 24 24 25 27 28 27 24 24
58 61 61 59 59 60 63 64 63 71 76 71 57 50 48 46 46 43 45 39 36 40 27 33 35 29 28 26 19 17 17 22 26 21 25 25 24 24 25 25 24 24 26
57 61 64 60 58 59 51 64 65 66 61 63 52 48 50 50 47 43 45 45 33 35 29 32 31 29 29 22 18 18 17 20 17 19 24 27 24 23 23 24 24 25 25
58 60 60 60 59 61 62 62 61 57 55 57 55 48 49 44 43 47 41 41 37 42 33 37 37 30 29 23 22 18 16 19 19 14 19 23 24 24 23 25 27 28 27
64 59 67 61 59 61 60 66 65 59 57 57 53 52 46 39 42 44 42 39 38 38 38 33 34 34 30 26 21 20 20 26 19 19 20 20 21 25 25 25 25 26 25
64 63 63 65 63 62 63 63 67 63 60 57 53 49 41 41 45 45 40 40 36 34 32 31 36 35 36 33 25 31 29 28 22 17 21 21 22 22 25 25 26 21 17
66 65 64 68 64 63 64 62 73 64 57 51 48 42 36 32 29 27 28 35 42 40 37 33 33 29 33 30 23 23 30 30 20 16 16 16 22 22 24 27 29 22 23
70 63 65 64 64 63 63 65 73 63 53 46 37 30 32 35 31 30 33 30 26 34 34 35 33 29 27 23 21 28 33 35 26 21 21 16 20 23 27 31 32 30 32
62 63 65 63 61 63 70 73 70 63 52 40 37 36 34 37 34 29 32 33 27 36 34 32 28 25 21 24 28 31 26 32 27 16 20 30 18 27 22 31 33 32 33
Wind_Direction_850mb
216 217 226 229 260 279 298 291 300 274 282 295 296 281 268 265 261 260 254 266 275 284 289 290 272 261 261 265 267 262 265 275 288 287 265 247 243 244 239 234 229 230 233
223 226 231 228 211 237 263 283 283 278 264 270 275 281 286 279 274 274 268 271 278 283 286 288 288 263 261 263 264 263 267 267 276 285 270 254 245 242 241 237 236 233 232
224 227 238 235 239 233 229 231 236 247 258 262 268 273 278 287 294 290 281 277 269 276 286 288 290 279 260 261 264 264 265 265 267 272 273 261 251 244 240 239 239 236 236
233 227 235 245 247 239 243 256 253 253 260 267 270 279 283 280 293 293 299 302 297 276 274 284 282 283 263 258 264 270 268 265 267 267 269 265 257 248 241 238 236 235 238
241 235 240 239 240 245 245 253 263 267 267 266 261 277 276 279 289 278 281 286 289 290 282 262 284 270 264 257 271 274 274 269 266 264 265 263 258 251 244 239 237 235 236
249 247 247 245 238 253 247 246 255 258 268 267 267 275 274 276 284 287 279 277 277 286 285 285 251 261 265 275 270 278 278 273 267 261 259 262 257 252 246 239 236 236 234
249 249 244 240 244 249 271 265 268 261 259 270 278 283 271 283 290 285 273 262 273 270 279 274 256 271 278 267 270 276 277 281 269 261 257 258 255 253 247 240 236 234 233
244 249 254 254 247 242 259 269 266 261 266 266 276 281 281 297 289 282 266 264 263 260 259 270 260 264 272 280 269 274 273 272 270 263 256 255 256 254 251 239 235 233 232
252 249 251 259 251 252 245 247 264 273 271 261 276 258 282 267 287 311 261 253 254 246 249 255 260 259 262 277 270 273 275 279 277 262 259 258 256 253 251 241 232 232 231
251 257 273 264 258 250 251 251 264 266 261 263 254 283 268 268 271 299 266 259 258 238 241 249 245 268 268 266 278 285 286 282 290 268 260 258 255 252 251 246 231 229 232
245 241 261 251 253 262 259 261 254 257 259 261 263 280 268 267 264 257 274 283 251 256 249 247 248 261 258 269 272 281 271 274 281 273 263 261 254 251 250 245 235 231 233
256 251 262 259 251 243 255 257 263 257 260 270 281 279 257 259 246 255 254 270 268 267 239 245 249 258 248 257 267 280 271 283 288 277 269 261 255 254 249 245 230 228 232
280 223 244 249 238 233 251 254 252 258 274 269 261 262 279 258 251 250 250 255 261 259 229 245 263 266 257 256 260 274 269 279 287 282 266 262 249 246 238 233 227 228 232
255 241 261 262 241 245 253 260 252 253 258 258 262 251 263 242 244 244 245 253 258 253 264 265 270 251 247 245 257 264 273 280 282 277 261 250 236 232 233 225 226 229 233
261 251 246 279 262 253 252 255 252 248 253 256 257 252 256 251 234 241 238 239 249 260 261 268 261 233 232 240 250 262 272 284 281 273 253 234 225 225 222 228 231 234 237
251 256 249 250 258 253 247 246 254 261 256 247 245 252 255 245 233 237 242 246 242 243 259 273 254 229 226 237 257 269 274 278 268 263 241 224 225 226 225 227 229 231 233
258 255 256 255 246 251 254 250 255 256 243 239 244 247 246 244 226 239 244 242 233 232 253 253 232 239 243 246 266 275 284 264 256 245 228 229 231 231 230 229 232 238 240
254 256 259 259 248 248 251 253 250 238 236 241 239 238 236 239 233 236 240 236 223 235 246 233 232 244 247 270 271 271 270 256 248 240 231 229 225 220 220 225 232 236 228
259 250 251 255 260 253 250 248 238 237 237 242 234 225 227 231 239 236 232 225 228 233 231 245 245 243 251 270 262 267 261 247 245 243 228 221 220 218 221 223 223 218 213
265 259 248 248 249 256 253 235 241 238 237 227 229 226 224 232 236 231 233 225 218 227 232 230 241 246 250 259 236 259 266 226 224 225 216 214 216 215 219 220 211 210 218
258 263 254 244 247 240 242 234 231 234 218 219 223 222 225 229 228 239 234 225 226 231 224 236 248 236 243 254 249 235 253 217 216 210 208 210 219 219 220 218 209 206 207
255 256 252 247 246 244 232 230 229 224 213 215 212 219 223 229 225 229 235 231 232 231 235 245 238 230 230 245 241 222 215 206 200 212 206 205 218 216 219 218 208 203 211
256 252 252 246 245 238 230 225 223 218 214 212 217 220 218 220 231 235 231 233 233 239 243 247 242 238 231 244 239 220 208 211 214 228 222 213 202 219 211 208 199 199 201
257 256 253 245 242 232 232 220 219 211 209 208 213 221 222 216 225 231 239 239 238 240 242 241 241 244 241 237 248 232 207 214 214 214 203 222 214 212 208 206 201 200 211
254 253 251 245 239 232 227 215 213 203 199 204 209 207 206 215 216 213 226 239 234 241 242 242 240 243 247 228 242 205 205 197 188 194 201 223 226 214 218 215 211 212 218
255 255 251 245 236 228 218 212 207 204 198 187 190 197 209 211 223 235 236 233 231 240 241 247 231 231 234 237 222 205 207 201 196 208 217 212 228 213 214 232 229 227 230